NANOZOND 1 (RS49S)

Last updated on Fri Dec 19 2025 00:03:12 GMT+0000 (Coordinated Universal Time)

1 57190U 23091AA 25352.60787586 .00062586 00000+0 96378-3 0 9993 2 57190 97.5286 62.7679 0004305 336.6337 23.4720 15.53985315137612
UTC large
Height (km)
Speed (km/s)
/
Latitude / Longitude
Inclination (degrees)
Orbital Period (minutes)
Azimuth
Elevation
Range (km)
Doppler Factor

Next 0 passes for location: London (51.5072 / 0.1276)

Sorry there are no passes over London.